Vancouver, British Columbia

9:01 PM PDT on May 28, 2017 (GMT -0700)
Vancouver International Airport

Weather History for CYVR - September, 2013

Change the Weather History Date:

Friday, September 13, 2013

  Actual Average Record
Temperature  
Mean Temperature 63 °F -  
Max Temperature 69 °F 61 °F 73 °F (1999)
Min Temperature 57 °F 47 °F 48 °F (2012)
Degree Days  
Heating Degree Days 2    
Growing Degree Days 13 (Base 50)    
Moisture  
Dew Point 58 °F    
Average Humidity 91    
Maximum Humidity 100    
Minimum Humidity 78    
Precipitation  
Precipitation 0.00 in 0.11 in - ()
Sea Level Pressure  
Sea Level Pressure 29.93 in    
Wind  
Wind Speed 8 mph ()    
Max Wind Speed 13 mph    
Max Gust Speed -    
Visibility 10.1 miles    
Events      
Averages and records for this station are not official NWS values.
T = Trace of Precipitation, MM = Missing Value Source: Averaged Metar Reports

Daily Weather History Graph

Daily Weather History Graph

Search for Another Location

Airport or City:

Trip Planner

Search our weather history database for the weather conditions in past years. The results will help you decide how hot, cold, wet, or windy it might be!

Date:

Astronomy

Sep. 13, 2013 Rise Set
Actual Time 6:46 AM PDT 7:29 PM PDT
Civil Twilight 6:14 AM PDT 8:01 PM PDT
Nautical Twilight 5:36 AM PDT 8:39 PM PDT
Astronomical Twilight 4:55 AM PDT 9:19 PM PDT
Moon 3:46 PM PDT (9/13) No Moon Set
Length of Visible Light 13h 46m
Length of Day
12h 42m
Waxing Gibbous, 62% of the Moon is Illuminated
Sep 13
Waxing Gibbous
Sep 19
Full
Sep 26
Last Quarter
Oct 4
New
Oct 11
First Quarter

Hourly Weather History & Observations

Time (PDT) Temp. Dew Point Humidity Pressure Visibility Wind Dir Wind Speed Gust Speed Precip Events Conditions
12:00 AM 60.8 °F 57.2 °F 88% 29.91 in 30.0 mi ESE 8.1 mph - N/A   Clear
1:00 AM 59.0 °F 57.2 °F 94% 29.92 in 30.0 mi East 9.2 mph - N/A   Clear
2:00 AM 59.0 °F 57.2 °F 94% 29.93 in 30.0 mi East 6.9 mph - N/A   Clear
3:00 AM 59.0 °F 57.2 °F 94% 29.93 in 30.0 mi East 9.2 mph - N/A   Clear
4:00 AM 59.0 °F 57.2 °F 94% 29.94 in 30.0 mi ESE 6.9 mph - N/A   Clear
5:00 AM 58 °F 56 °F 91% 29.94 in 28 mi ESE 6.9 mph - -  
5:00 AM 59.0 °F 55.4 °F 88% 29.93 in 30.0 mi ESE 6.9 mph - N/A   Clear
6:00 AM 57.2 °F 55.4 °F 94% 29.94 in 30.0 mi ESE 6.9 mph - N/A   Clear
7:00 AM 59.0 °F 57.2 °F 94% 29.95 in 30.0 mi ESE 8.1 mph - N/A   Clear
7:40 AM 59.0 °F 57.2 °F 94% 29.96 in 20.0 mi SE 9.2 mph - N/A   Scattered Clouds
7:45 AM 59.0 °F 57.2 °F 94% 29.96 in 20.0 mi SE 6.9 mph - N/A   Mostly Cloudy
8:00 AM 59.0 °F 57.2 °F 94% 29.96 in 5.0 mi SE 8.1 mph - N/A   Overcast
8:17 AM 59.0 °F 57.2 °F 94% 29.96 in 2.5 mi SE 9.2 mph - N/A   Overcast
8:36 AM 59.0 °F 57.2 °F 94% 29.97 in 1.8 mi SE 5.8 mph - N/A   Overcast
8:55 AM 59.0 °F 57.2 °F 94% 29.97 in 1.2 mi SE 8.1 mph - N/A   Overcast
9:00 AM 59.0 °F 59.0 °F 100% 29.97 in 1.5 mi ESE 9.2 mph - N/A   Overcast
9:22 AM 59.0 °F 57.2 °F 94% 29.97 in 0.8 mi ESE 11.5 mph - N/A   Overcast
9:28 AM 59.0 °F 59.0 °F 100% 29.97 in 1.0 mi ESE 10.4 mph - N/A   Overcast
9:39 AM 59.0 °F 59.0 °F 100% 29.97 in 2.0 mi ESE 9.2 mph - N/A   Overcast
9:45 AM 59.0 °F 59.0 °F 100% 29.96 in 3.0 mi SE 11.5 mph - N/A   Overcast
10:00 AM 60.8 °F 59.0 °F 94% 29.97 in 4.0 mi SE 9.2 mph - N/A   Overcast
10:36 AM 60.8 °F - N/A% 29.97 in 5.0 mi ESE 9.2 mph - N/A   Overcast
10:54 AM 60.8 °F 59.0 °F 94% 29.96 in 5.0 mi ESE 8.1 mph - N/A   Overcast
11:00 AM 62 °F 59 °F 88% 29.97 in 5 mi ESE 8.1 mph - -   Mist
11:00 AM 62.6 °F 59.0 °F 88% 29.96 in 5.0 mi ESE 9.2 mph - N/A   Overcast
11:16 AM 62.6 °F 59.0 °F 88% 29.96 in 7.0 mi ESE 11.5 mph - N/A   Overcast
12:00 PM 62.6 °F 59.0 °F 88% 29.96 in 15.0 mi SE 11.5 mph - N/A   Overcast
1:00 PM 64.4 °F 59.0 °F 83% 29.94 in 15.0 mi SSE 6.9 mph - N/A   Overcast
1:15 PM 64.4 °F 59.0 °F 83% 29.94 in 15.0 mi SE 6.9 mph - N/A   Mostly Cloudy
2:00 PM 66.2 °F 59.0 °F 78% 29.93 in 20.0 mi SSE 8.1 mph - N/A   Scattered Clouds
3:00 PM 68.0 °F 60.8 °F 78% 29.91 in 20.0 mi South 3.5 mph - N/A   Partly Cloudy
4:00 PM 68.0 °F 60.8 °F 78% 29.89 in 20.0 mi SSW 9.2 mph - N/A   Clear
5:00 PM 68.0 °F 60.8 °F 78% 29.87 in 30.0 mi South 8.1 mph - N/A   Clear
6:00 PM 66.2 °F 60.8 °F 83% 29.87 in 30.0 mi SSE 8.1 mph - N/A   Clear
7:00 PM 64.4 °F 59.0 °F 83% 29.86 in 20.0 mi ESE 9.2 mph - N/A   Clear
8:00 PM 60.8 °F 57.2 °F 88% 29.87 in 20.0 mi SE 6.9 mph - N/A   Clear
9:00 PM 59.0 °F 57.2 °F 94% 29.88 in 15.0 mi East 10.4 mph - N/A   Partly Cloudy
9:15 PM 59.0 °F 57.2 °F 94% 29.88 in 15.0 mi East 9.2 mph - N/A   Scattered Clouds
9:19 PM 59.0 °F 57.2 °F 94% 29.88 in 15.0 mi ESE 9.2 mph - N/A   Mostly Cloudy
10:00 PM 59.0 °F 57.2 °F 94% 29.89 in 12.0 mi SE 12.7 mph - N/A   Overcast
11:00 PM 59 °F 58 °F 93% 29.90 in 12 mi ESE 11.5 mph - -   Overcast
11:00 PM 59.0 °F 57.2 °F 94% 29.90 in 12.0 mi ESE 12.7 mph - N/A   Overcast
11:24 PM 59.0 °F 57.2 °F 94% 29.90 in 8.0 mi ESE 10.4 mph - N/A   Overcast